When you browse on this site, cookies collect data to enhance your experience and personalize the content and advertising you see.
Visit our Privacy Policy to learn more. By continuing to use the site, you agree to this use of cookies and data.

Hourly Weather Groningen

Today, 11 July, Saturday

Time Temperature Precipitation Wind Pressure Humidity
00:00 +25°C° 0 mm 2 mps 758 mmHg 97%
01:00 +25°C° 0 mm 2 mps 758 mmHg 97%
02:00 +25°C° 0 mm 2 mps 757 mmHg 97%
03:00 +25°C° 0 mm 2 mps 757 mmHg 97%
04:00 +24°C° 0 mm 2 mps 757 mmHg 98%
05:00 +24°C° 0 mm 2 mps 757 mmHg 98%
06:00 +25°C° 0 mm 2 mps 757 mmHg 92%
07:00 +27°C° 0 mm 2 mps 757 mmHg 86%
08:00 +28°C° 0 mm 2 mps 757 mmHg 80%
09:00 +30°C° 0 mm 2 mps 758 mmHg 71%
10:00 +32°C° 0 mm 2 mps 758 mmHg 62%
11:00 +35°C° 0 mm 2 mps 758 mmHg 53%
12:00 +34°C° 0.7 mm 3 mps 757 mmHg 63%
13:00 +33°C° 0.7 mm 3 mps 757 mmHg 73%
14:00 +31°C° 0.7 mm 3 mps 756 mmHg 83%
15:00 +30°C° 1 mm 3 mps 756 mmHg 86%
16:00 +29°C° 1 mm 3 mps 756 mmHg 89%
17:00 +28°C° 1 mm 3 mps 756 mmHg 93%
18:00 +27°C° 0.2 mm 3 mps 756 mmHg 94%
19:00 +27°C° 0.2 mm 3 mps 757 mmHg 94%
20:00 +26°C° 0.2 mm 3 mps 757 mmHg 95%
21:00 +26°C° 0 mm 3 mps 757 mmHg 96%
22:00 +25°C° 0 mm 3 mps 758 mmHg 97%
23:00 +25°C° 0 mm 3 mps 758 mmHg 97%

Tomorrow, 12 July, Sunday

Time Temperature Precipitation Wind Pressure Humidity
00:00 +25°C° 0.1 mm 2 mps 757 mmHg 98%
01:00 +25°C° 0.1 mm 2 mps 757 mmHg 98%
02:00 +25°C° 0.1 mm 2 mps 757 mmHg 99%
03:00 +25°C° 0.1 mm 2 mps 757 mmHg 99%
04:00 +25°C° 0.1 mm 2 mps 757 mmHg 99%
05:00 +24°C° 0.1 mm 2 mps 757 mmHg 99%
06:00 +26°C° 0.4 mm 2 mps 757 mmHg 95%
07:00 +27°C° 0.4 mm 2 mps 758 mmHg 91%
08:00 +28°C° 0.4 mm 2 mps 758 mmHg 86%
09:00 +29°C° 1.3 mm 3 mps 758 mmHg 86%
10:00 +29°C° 1.3 mm 3 mps 758 mmHg 85%
11:00 +30°C° 1.3 mm 3 mps 758 mmHg 85%
12:00 +30°C° 1 mm 3 mps 758 mmHg 85%
13:00 +30°C° 1 mm 3 mps 757 mmHg 85%
14:00 +30°C° 1 mm 3 mps 757 mmHg 85%
15:00 +29°C° 0.3 mm 3 mps 756 mmHg 86%
16:00 +29°C° 0.3 mm 3 mps 756 mmHg 87%
17:00 +28°C° 0.3 mm 3 mps 756 mmHg 88%
18:00 +28°C° 0.2 mm 3 mps 756 mmHg 91%
19:00 +27°C° 0.2 mm 3 mps 757 mmHg 93%
20:00 +26°C° 0.2 mm 3 mps 758 mmHg 96%
21:00 +26°C° 0.1 mm 3 mps 758 mmHg 96%
22:00 +26°C° 0.1 mm 2 mps 758 mmHg 96%
23:00 +26°C° 0.1 mm 2 mps 758 mmHg 97%

Day after tomorrow, 13 July, Monday

Time Temperature Precipitation Wind Pressure Humidity
00:00 +26°C° 0 mm 2 mps 758 mmHg 97%
01:00 +25°C° 0 mm 2 mps 757 mmHg 98%
02:00 +25°C° 0 mm 2 mps 757 mmHg 98%
03:00 +25°C° 0 mm 2 mps 757 mmHg 98%
04:00 +24°C° 0 mm 2 mps 757 mmHg 98%
05:00 +24°C° 0 mm 2 mps 757 mmHg 98%
06:00 +25°C° 0 mm 2 mps 758 mmHg 94%
07:00 +27°C° 0 mm 2 mps 758 mmHg 89%
08:00 +28°C° 0 mm 2 mps 759 mmHg 85%
09:00 +30°C° 0 mm 2 mps 759 mmHg 73%
10:00 +32°C° 0 mm 2 mps 759 mmHg 62%
11:00 +35°C° 0 mm 2 mps 759 mmHg 50%
12:00 +34°C° 0.1 mm 2 mps 758 mmHg 54%
13:00 +34°C° 0.1 mm 3 mps 757 mmHg 58%
14:00 +34°C° 0.1 mm 3 mps 757 mmHg 61%
15:00 +31°C° 0.5 mm 3 mps 757 mmHg 72%
16:00 +29°C° 0.5 mm 3 mps 757 mmHg 83%
17:00 +28°C° 0.5 mm 3 mps 757 mmHg 93%
18:00 +27°C° 0.2 mm 3 mps 757 mmHg 95%
19:00 +26°C° 0.2 mm 3 mps 757 mmHg 96%
20:00 +25°C° 0.2 mm 2 mps 758 mmHg 97%
21:00 +25°C° 0.1 mm 2 mps 758 mmHg 97%
22:00 +25°C° 0.1 mm 2 mps 758 mmHg 98%
23:00 +25°C° 0.1 mm 2 mps 758 mmHg 98%

14 July, Tuesday

Time Temperature Precipitation Wind Pressure Humidity
00:00 +25°C° 0.1 mm 2 mps 758 mmHg 98%
01:00 +24°C° 0.1 mm 2 mps 757 mmHg 98%
02:00 +24°C° 0.1 mm 2 mps 757 mmHg 98%
03:00 +24°C° 0.1 mm 2 mps 757 mmHg 98%
04:00 +24°C° 0.1 mm 2 mps 757 mmHg 98%
05:00 +24°C° 0.1 mm 2 mps 757 mmHg 98%
06:00 +25°C° 0.1 mm 2 mps 758 mmHg 95%
07:00 +26°C° 0.1 mm 2 mps 758 mmHg 92%
08:00 +27°C° 0.1 mm 2 mps 759 mmHg 89%
09:00 +29°C° 0.4 mm 2 mps 759 mmHg 81%
10:00 +30°C° 0.4 mm 2 mps 759 mmHg 74%
11:00 +32°C° 0.4 mm 2 mps 759 mmHg 66%
12:00 +32°C° 0.2 mm 2 mps 758 mmHg 65%
13:00 +32°C° 0.2 mm 2 mps 757 mmHg 65%
14:00 +32°C° 0.2 mm 2 mps 757 mmHg 64%
15:00 +31°C° 0.5 mm 2 mps 757 mmHg 72%
16:00 +30°C° 0.5 mm 2 mps 757 mmHg 81%
17:00 +29°C° 0.5 mm 2 mps 757 mmHg 90%
18:00 +27°C° 0.1 mm 2 mps 757 mmHg 91%
19:00 +26°C° 0.1 mm 2 mps 758 mmHg 93%
20:00 +25°C° 0.1 mm 2 mps 758 mmHg 94%
21:00 +25°C° 0 mm 2 mps 758 mmHg 94%
22:00 +24°C° 0 mm 2 mps 758 mmHg 95%
23:00 +24°C° 0 mm 2 mps 759 mmHg 95%

15 July, Wednesday

Time Temperature Precipitation Wind Pressure Humidity
00:00 +24°C° 0 mm 2 mps 758 mmHg 96%
01:00 +24°C° 0 mm 2 mps 758 mmHg 96%
02:00 +24°C° 0 mm 2 mps 757 mmHg 97%
03:00 +23°C° 0.1 mm 2 mps 757 mmHg 97%
04:00 +23°C° 0.1 mm 2 mps 757 mmHg 97%
05:00 +23°C° 0.1 mm 2 mps 757 mmHg 97%
06:00 +25°C° 0.1 mm 2 mps 758 mmHg 91%
07:00 +26°C° 0.1 mm 2 mps 758 mmHg 85%
08:00 +27°C° 0.1 mm 2 mps 759 mmHg 79%
09:00 +30°C° 0 mm 2 mps 759 mmHg 70%
10:00 +32°C° 0 mm 2 mps 758 mmHg 61%
11:00 +35°C° 0 mm 2 mps 758 mmHg 52%
12:00 +35°C° 0.1 mm 2 mps 758 mmHg 51%
13:00 +35°C° 0.1 mm 2 mps 757 mmHg 50%
14:00 +36°C° 0.1 mm 3 mps 757 mmHg 49%
15:00 +33°C° 0.6 mm 3 mps 756 mmHg 63%
16:00 +30°C° 0.6 mm 3 mps 756 mmHg 76%
17:00 +28°C° 0.6 mm 3 mps 756 mmHg 90%
18:00 +27°C° 0.2 mm 3 mps 757 mmHg 91%
19:00 +26°C° 0.2 mm 3 mps 757 mmHg 93%
20:00 +25°C° 0.2 mm 3 mps 758 mmHg 94%
21:00 +25°C° 0.1 mm 3 mps 758 mmHg 95%
22:00 +25°C° 0.1 mm 3 mps 758 mmHg 95%
23:00 +24°C° 0.1 mm 3 mps 758 mmHg 96%

16 July, Thursday

Time Temperature Precipitation Wind Pressure Humidity
00:00 +24°C° 0.1 mm 2 mps 758 mmHg 96%
01:00 +24°C° 0.1 mm 2 mps 757 mmHg 96%
02:00 +24°C° 0.1 mm 2 mps 757 mmHg 96%
03:00 +24°C° 0.1 mm 2 mps 757 mmHg 97%
04:00 +24°C° 0.1 mm 2 mps 757 mmHg 97%
05:00 +24°C° 0.1 mm 2 mps 757 mmHg 97%
06:00 +25°C° 0.1 mm 2 mps 758 mmHg 91%
07:00 +26°C° 0.1 mm 2 mps 758 mmHg 84%
08:00 +28°C° 0.1 mm 3 mps 759 mmHg 78%
09:00 +30°C° 0 mm 3 mps 759 mmHg 69%
10:00 +32°C° 0 mm 2 mps 759 mmHg 60%
11:00 +35°C° 0 mm 2 mps 759 mmHg 51%
12:00 +35°C° 0.1 mm 3 mps 758 mmHg 50%
13:00 +35°C° 0.1 mm 3 mps 757 mmHg 50%
14:00 +36°C° 0.1 mm 3 mps 757 mmHg 50%
15:00 +33°C° 1 mm 3 mps 757 mmHg 64%
16:00 +30°C° 1 mm 4 mps 756 mmHg 79%
17:00 +27°C° 1 mm 4 mps 756 mmHg 93%
18:00 +26°C° 0.5 mm 4 mps 757 mmHg 94%
19:00 +26°C° 0.5 mm 3 mps 757 mmHg 95%
20:00 +25°C° 0.5 mm 3 mps 758 mmHg 96%
21:00 +25°C° 0.3 mm 3 mps 758 mmHg 96%
22:00 +25°C° 0.3 mm 3 mps 758 mmHg 96%
23:00 +25°C° 0.3 mm 3 mps 758 mmHg 96%
Show more